Regional Weather Roundup
Issued by NWS

Home | Current Version | Previous Version | Text Only | Print | Product List | Glossary Off
Versions: 1 2 3 4 5 6 7 8 9 10 11 12 13 14 15 16 17 18 19 20 21 22 23 24 25 26 27 28 29 30 31 32 33 34 35 36 37 38 39 40 41 42 43 44 45 46 47 48 49 50

000
ASUS43 KLMK 050110
RWRKY
KENTUCKY REGIONAL WEATHER ROUNDUP
NATIONAL WEATHER SERVICE LOUISVILLE KY
900 PM EDT FRI SEP 04 2015

NOTE "FAIR" INDICATES FEW OR NO CLOUDS BELOW 12,000 FEET
WITH NO SIGNIFICANT WEATHER AND/OR OBSTRUCTIONS TO VISIBILITY.

KYZ001>023-026-027-061>063-070>075-050200-
WESTERN AND SOUTH CENTRAL KENTUCKY

CITY           SKY/WX    TMP DP  RH WIND       PRES   REMARKS
PADUCAH        CLEAR     78  70  76 CALM      29.98S
HENDERSON      CLEAR     77  72  83 CALM      29.99S
OWENSBORO      CLEAR     85  67  54 CALM      30.02R
HOPKINSVILLE   CLEAR     79  69  70 N5        30.00R
BOWLING GREEN  CLEAR     80  64  58 CALM      30.02R
GLASGOW        CLEAR     75  68  78 CALM      30.03R
$$

KYZ024-025-028>034-038-045-046-053-050200-
NORTH CENTRAL KENTUCKY

CITY           SKY/WX    TMP DP  RH WIND       PRES   REMARKS
LOUISVILLE/SDF PTCLDY    89  63  41 CALM      30.02R HX  90
LOUISVILLE/LOU CLEAR     83  68  60 CALM      30.04R
FORT KNOX      CLEAR     76  70  83 N2        30.03R
$$

KYZ035>037-039>044-047>052-055>060-089>105-050200-
NORTHEAST KENTUCKY

CITY           SKY/WX    TMP DP  RH WIND       PRES   REMARKS
LEXINGTON      PTCLDY    82  64  54 E5        30.07R
COVINGTON      TSTM      71  67  87 N9        30.13R
FRANKFORT      CLEAR     77  68  73 CALM      30.05R
$$

KYZ054-064>069-076>088-106>120-050200-
SOUTHEAST KENTUCKY

CITY           SKY/WX    TMP DP  RH WIND       PRES   REMARKS
JACKSON        CLEAR     78  66  66 VRB3      30.10R
LONDON         CLEAR     79  65  62 NE5       30.08R
SOMERSET       PTCLDY    75  68  78 CALM      30.07R
MIDDLESBORO    CLEAR     75  68  77 W3        30.08R
MONTICELLO     CLEAR     73  70  91 CALM      30.09R
$$



USA.gov is the U.S. government's official web portal to all federal, state and local government web resources and services.